This is the latest recevied weather packets stored in our database for station/object KJ6APE. If no packets are shown the sender has not sent any weather packets the latest 10 day(s).
| Time | Temp. | Humidity | Pressure | Rain* | Wind** | Luminosity | Snow |
|---|---|---|---|---|---|---|---|
| 1777744537 | 15.56° C | 74% | 1013.8 hPa | 0 mm | - | 506 W/m² | - |
| 1777744233 | 15.56° C | 73% | 1013.7 hPa | 0 mm | - | 436 W/m² | - |
| 1777743931 | 15.56° C | 73% | 1013.7 hPa | 0 mm | - | 369 W/m² | - |
| 1777743627 | 15.56° C | 72% | 1013.6 hPa | 0 mm | - | 385 W/m² | - |
| 1777743325 | 16.11° C | 72% | 1013.6 hPa | 0 mm | - | 326 W/m² | - |
| 1777743023 | 15.56° C | 73% | 1013.6 hPa | 0 mm | - | 442 W/m² | - |
| 1777742720 | 15.56° C | 74% | 1013.6 hPa | 0 mm | - | 462 W/m² | - |
| 1777742416 | 15.56° C | 73% | 1013.7 hPa | 0 mm | - | 515 W/m² | - |
| 1777742111 | 15.56° C | 74% | 1013.6 hPa | 0 mm | - | 465 W/m² | - |
| 1777741809 | 15° C | 75% | 1013.6 hPa | 0 mm | - | 474 W/m² | - |
| 1777741505 | 15° C | 76% | 1013.7 hPa | 0 mm | - | 380 W/m² | - |
| 1777741202 | 15° C | 76% | 1013.7 hPa | 0 mm | - | 293 W/m² | - |
| 1777740899 | 14.44° C | 77% | 1013.7 hPa | 0 mm | - | 247 W/m² | - |
| 1777740596 | 14.44° C | 77% | 1013.8 hPa | 0 mm | - | 234 W/m² | - |
| 1777740292 | 14.44° C | 77% | 1014 hPa | 0 mm | - | 200 W/m² | - |
| 1777739989 | 14.44° C | 77% | 1013.7 hPa | 0 mm | - | 183 W/m² | - |
| 1777739684 | 14.44° C | 77% | 1013.8 hPa | 0 mm | - | 199 W/m² | - |
| 1777739383 | 14.44° C | 77% | 1013.6 hPa | 0 mm | - | 208 W/m² | - |
| 1777739079 | 14.44° C | 77% | 1013.5 hPa | 0 mm | - | 193 W/m² | - |
| 1777738776 | 14.44° C | 77% | 1013.6 hPa | 0 mm | - | 234 W/m² | - |
| 1777738472 | 14.44° C | 78% | 1013.6 hPa | 0 mm | - | 217 W/m² | - |
| 1777738171 | 14.44° C | 78% | 1013.5 hPa | 0 mm | - | 186 W/m² | - |
| 1777737868 | 14.44° C | 77% | 1013.4 hPa | 0 mm | - | 189 W/m² | - |
| 1777737567 | 14.44° C | 78% | 1013.5 hPa | 0 mm | - | 191 W/m² | - |
| 1777737266 | 13.89° C | 78% | 1013.6 hPa | 0 mm | - | 185 W/m² | - |
* Rain latest hour (hover to see other rain measurements)
** Current wind speed in m/s (hover to see current wind gust speed)